Starlink 5994

operational
NORAD ID: 56457 Int'l Des: 2023-064 Owner: SPXS Country: US Constellation: starlink
LEOCIRCULAR

About Starlink 5994

Description loading...

Live Position

Loading 3D Globe...

Upcoming Passes

Altitude History

Altitude vs Time

uPlot chart will show altitude changes over time

Two-Line Element Set

1 56457U 23064K 26035.83084975 .00000695 00000-0 66034-4 0 9995
2 56457 69.9992 227.3204 0002808 271.6161 88.4677 14.98333882150325
Epoch: Feb 4, 2026 • Age: 6 hours

Current Status

Altitude 595.5 km
Velocity 7.56 km/s
Sub-Earth Point -69.44°S, 42.61°W
Launch Date May 10, 2023
Age 2.7 years
Type internet

Technical Details

Classification Payload
Mass 305.00 kg
Dry Mass 290.00 kg
Total Mass 305.00 kg
Length 0.20 m
Diameter 2.80 m
Span 9.00 m
Shape Box + pan
Manufacturer SPXS
Bus Type Starlink
Phase Status In Orbit
Owner/State SPXS/US

Large Constellations

Loading constellations...